User: anonymous   Login
Location: Unspecified
(0.0000°N, 0.0000°E)
Time: 06:45:56
(UTC+00:00)
Language:

TBA - TO BE ASSIGNED - Orbit

View from above orbital plane
View from above orbital plane
View from above satellite
View from above satellite

Ground track
Ground track

The orbit is defined by the following mean orbital elements,

1 68167U          26145.36412500 +.00000000 +00000-0 +10682-2 0 00009
2 68167  53.1580 270.5225 0001115  99.3219 260.7912 15.38851525    06
Epoch (UTC): 25 May 2026 08:44:20
Eccentricity: 0.0001115
inclination: 53.1580°
perigee height: 449 km
apogee height: 450 km
right ascension of ascending node: 270.5225°
argument of perigee: 99.3219°
revolutions per day: 15.38851525
mean anomaly at epoch: 260.7912°

The dashed part of the orbit path shows where the satellite is in the earth's shadow,  

DLR